N258LJ KADS-KMRY

Flight info

Callsign N258LJ
Flight time 3h 10m
Altitude 43000
Route BOTCH1 BRHMA CNX DRK AVE WIGGL
Aircraft C750/M-SBDE3FGHRWXY/S

Departure

Time 2026-04-26 22:38
Airport Addison Airport (KADS)

Arrival

Time 2026-04-27 01:48
Airport Monterey Regional Airport (KMRY)
Time Latitude Longitude Altitude Speed Heading
2026-04-26 21:55 32.96074 -96.83126 640 ft 0 kts 69°
2026-04-26 22:29 32.96077 -96.83120 640 ft 2 kts 53°
2026-04-26 22:30 32.96108 -96.83123 640 ft 6 kts 338°
2026-04-26 22:30 32.96153 -96.83149 640 ft 8 kts 341°
2026-04-26 22:30 32.96196 -96.83192 640 ft 9 kts 277°
2026-04-26 22:30 32.96202 -96.83255 640 ft 8 kts 323°
2026-04-26 22:31 32.96278 -96.83290 640 ft 15 kts 339°
2026-04-26 22:31 32.96381 -96.83335 639 ft 15 kts 340°
2026-04-26 22:31 32.96481 -96.83378 639 ft 16 kts 339°
2026-04-26 22:31 32.96577 -96.83420 639 ft 14 kts 340°
2026-04-26 22:32 32.96668 -96.83460 640 ft 14 kts 339°
2026-04-26 22:32 32.96764 -96.83502 640 ft 15 kts 339°
2026-04-26 22:32 32.96869 -96.83548 640 ft 16 kts 340°
2026-04-26 22:32 32.96987 -96.83600 641 ft 19 kts 340°
2026-04-26 22:33 32.97106 -96.83653 640 ft 17 kts 341°
2026-04-26 22:33 32.97321 -96.83746 641 ft 18 kts 340°
2026-04-26 22:33 32.97447 -96.83800 640 ft 21 kts 340°
2026-04-26 22:34 32.97593 -96.83864 640 ft 24 kts 340°
2026-04-26 22:34 32.97722 -96.83921 640 ft 15 kts 340°
2026-04-26 22:34 32.97778 -96.83950 640 ft 5 kts 313°
2026-04-26 22:34 32.97781 -96.83956 640 ft 0 kts 307°
2026-04-26 22:36 32.97782 -96.83956 640 ft 1 kts 306°
2026-04-26 22:36 32.97788 -96.83982 640 ft 6 kts 279°
2026-04-26 22:37 32.97767 -96.84034 641 ft 9 kts 204°
2026-04-26 22:37 32.97633 -96.83985 640 ft 53 kts 159°
2026-04-26 22:37 32.96978 -96.83701 642 ft 136 kts 160°
2026-04-26 22:37 32.96006 -96.83269 894 ft 161 kts 159°
2026-04-26 22:38 32.94882 -96.82746 1364 ft 188 kts 160°
2026-04-26 22:38 32.93605 -96.82143 1922 ft 209 kts 161°
2026-04-26 22:38 32.92147 -96.81462 1981 ft 233 kts 160°
2026-04-26 22:38 32.90615 -96.80767 1976 ft 238 kts 163°
2026-04-26 22:39 32.88928 -96.80589 2302 ft 251 kts 190°
2026-04-26 22:39 32.87464 -96.81581 3308 ft 244 kts 223°
2026-04-26 22:39 32.86731 -96.83416 3919 ft 264 kts 254°
2026-04-26 22:39 32.86701 -96.85649 3977 ft 277 kts 269°
2026-04-26 22:40 32.86910 -96.87898 3995 ft 275 kts 272°
2026-04-26 22:40 32.87161 -96.90136 3935 ft 273 kts 272°
2026-04-26 22:40 32.87424 -96.92331 3883 ft 269 kts 273°
2026-04-26 22:40 32.87695 -96.94540 3980 ft 270 kts 272°
2026-04-26 22:41 32.87959 -96.96751 3986 ft 269 kts 273°
2026-04-26 22:41 32.88211 -96.98961 3984 ft 268 kts 272°
2026-04-26 22:41 32.88463 -97.01172 3979 ft 268 kts 273°
2026-04-26 22:41 32.88716 -97.03360 3981 ft 268 kts 272°
2026-04-26 22:42 32.88976 -97.05548 3974 ft 269 kts 273°
2026-04-26 22:42 32.89233 -97.07743 3974 ft 267 kts 273°
2026-04-26 22:42 32.89479 -97.09975 4749 ft 263 kts 272°
2026-04-26 22:42 32.89311 -97.12050 5779 ft 255 kts 252°
2026-04-26 22:43 32.88721 -97.14046 6509 ft 258 kts 249°
2026-04-26 22:43 32.88209 -97.16103 7379 ft 260 kts 255°
2026-04-26 22:43 32.87852 -97.18228 8295 ft 263 kts 258°
2026-04-26 22:43 32.87507 -97.20380 9213 ft 266 kts 257°
2026-04-26 22:44 32.87111 -97.22553 10034 ft 271 kts 256°
2026-04-26 22:44 32.86690 -97.24802 10311 ft 294 kts 256°
2026-04-26 22:44 32.86239 -97.27294 10379 ft 322 kts 257°
2026-04-26 22:44 32.85762 -97.29973 10757 ft 334 kts 257°
2026-04-26 22:45 32.85288 -97.32601 11976 ft 312 kts 258°
2026-04-26 22:45 32.84987 -97.34256 12620 ft 309 kts 258°
2026-04-26 22:45 32.84526 -97.36784 13300 ft 314 kts 258°
2026-04-26 22:45 32.83913 -97.40164 14226 ft 316 kts 258°
2026-04-26 22:46 32.83604 -97.41866 14637 ft 318 kts 259°
2026-04-26 22:46 32.83133 -97.44452 15286 ft 321 kts 259°
2026-04-26 22:46 32.82657 -97.47061 15938 ft 324 kts 259°
2026-04-26 22:46 32.82178 -97.49687 16613 ft 323 kts 259°
2026-04-26 22:47 32.81714 -97.52215 16977 ft 300 kts 259°
2026-04-26 22:47 32.81260 -97.54705 16974 ft 319 kts 259°
2026-04-26 22:47 32.80782 -97.57336 17166 ft 336 kts 259°
2026-04-26 22:47 32.80279 -97.60069 17640 ft 346 kts 259°
2026-04-26 22:48 32.79752 -97.62939 17995 ft 361 kts 259°
2026-04-26 22:48 32.79215 -97.65856 18716 ft 361 kts 259°
2026-04-26 22:48 32.78676 -97.68782 19327 ft 363 kts 259°
2026-04-26 22:48 32.78332 -97.71770 19896 ft 366 kts 268°
2026-04-26 22:49 32.78395 -97.74764 20545 ft 367 kts 275°
2026-04-26 22:49 32.78850 -97.77770 21175 ft 371 kts 283°
2026-04-26 22:49 32.79556 -97.80725 21795 ft 373 kts 285°
2026-04-26 22:49 32.80257 -97.83725 22415 ft 376 kts 284°
2026-04-26 22:50 32.80952 -97.86747 22889 ft 380 kts 284°
2026-04-26 22:50 32.81655 -97.89754 23473 ft 383 kts 285°
2026-04-26 22:50 32.82376 -97.92814 24015 ft 385 kts 285°
2026-04-26 22:50 32.83096 -97.95893 24569 ft 387 kts 285°
2026-04-26 22:51 32.83813 -97.98983 25111 ft 389 kts 285°
2026-04-26 22:51 32.84535 -98.02092 25645 ft 391 kts 285°
2026-04-26 22:51 32.85264 -98.05225 26176 ft 393 kts 285°
2026-04-26 22:51 32.85996 -98.08375 26680 ft 396 kts 285°
2026-04-26 22:52 32.86731 -98.11550 27205 ft 398 kts 285°
2026-04-26 22:52 32.87462 -98.14706 27712 ft 401 kts 285°
2026-04-26 22:52 32.88204 -98.17918 28225 ft 403 kts 285°
2026-04-26 22:52 32.88951 -98.21150 28731 ft 406 kts 285°
2026-04-26 22:53 32.89701 -98.24402 29225 ft 408 kts 285°
2026-04-26 22:53 32.90457 -98.27675 29709 ft 411 kts 285°
2026-04-26 22:53 32.91209 -98.30930 30138 ft 413 kts 285°
2026-04-26 22:53 32.91970 -98.34233 30566 ft 414 kts 285°
2026-04-26 22:54 32.92729 -98.37532 31179 ft 410 kts 285°
2026-04-26 22:54 32.93475 -98.40780 31866 ft 405 kts 285°
2026-04-26 22:54 32.94214 -98.43998 32463 ft 401 kts 285°
2026-04-26 22:54 32.94944 -98.47183 33032 ft 396 kts 285°
2026-04-26 22:55 32.95666 -98.50338 33590 ft 393 kts 285°
2026-04-26 22:55 32.96383 -98.53472 34082 ft 390 kts 285°
2026-04-26 22:55 32.97089 -98.56566 34584 ft 386 kts 285°
2026-04-26 22:55 32.97788 -98.59634 35084 ft 382 kts 284°
2026-04-26 22:56 32.98482 -98.62679 35596 ft 379 kts 284°
2026-04-26 22:56 32.99170 -98.65705 36102 ft 376 kts 284°
2026-04-26 22:56 32.99841 -98.68656 36632 ft 372 kts 284°
2026-04-26 22:56 33.00513 -98.71619 37157 ft 368 kts 284°
2026-04-26 22:57 33.01178 -98.74553 37663 ft 365 kts 284°
2026-04-26 22:57 33.01838 -98.77467 38178 ft 362 kts 284°
2026-04-26 22:57 33.02491 -98.80356 38597 ft 359 kts 284°
2026-04-26 22:57 33.03142 -98.83238 38917 ft 360 kts 284°
2026-04-26 22:58 33.03793 -98.86124 39275 ft 361 kts 284°
2026-04-26 22:58 33.04444 -98.89014 39643 ft 362 kts 284°
2026-04-26 22:58 33.05097 -98.91915 39997 ft 363 kts 284°
2026-04-26 22:58 33.05744 -98.94790 40342 ft 364 kts 284°
2026-04-26 22:59 33.06398 -98.97702 40701 ft 365 kts 284°
2026-04-26 22:59 33.07053 -99.00625 41050 ft 365 kts 284°
2026-04-26 22:59 33.07711 -99.03563 41396 ft 367 kts 284°
2026-04-26 22:59 33.08370 -99.06506 41713 ft 368 kts 284°
2026-04-26 23:00 33.09031 -99.09466 42039 ft 369 kts 284°
2026-04-26 23:00 33.09692 -99.12426 42358 ft 370 kts 284°
2026-04-26 23:00 33.10355 -99.15398 42668 ft 371 kts 284°
2026-04-26 23:01 33.11707 -99.21477 42670 ft 387 kts 284°
2026-04-26 23:01 33.13104 -99.27771 42669 ft 402 kts 284°
2026-04-26 23:02 33.14554 -99.34321 42659 ft 413 kts 284°
2026-04-26 23:02 33.16026 -99.40984 42647 ft 415 kts 284°
2026-04-26 23:03 33.17495 -99.47660 42645 ft 415 kts 284°
2026-04-26 23:03 33.18961 -99.54331 42634 ft 415 kts 284°
2026-04-26 23:04 33.20421 -99.60996 42636 ft 415 kts 284°
2026-04-26 23:04 33.21940 -99.67602 42636 ft 414 kts 285°
2026-04-26 23:05 33.23442 -99.74244 42634 ft 414 kts 284°
2026-04-26 23:05 33.24948 -99.80894 42627 ft 414 kts 284°
2026-04-26 23:06 33.26452 -99.87554 42626 ft 414 kts 284°
2026-04-26 23:06 33.27940 -99.94170 42619 ft 414 kts 284°
2026-04-26 23:07 33.29436 -100.00833 42618 ft 414 kts 284°
2026-04-26 23:07 33.30929 -100.07502 42615 ft 414 kts 284°
2026-04-26 23:08 33.32406 -100.14120 42619 ft 414 kts 284°
2026-04-26 23:08 33.33890 -100.20787 42614 ft 415 kts 284°
2026-04-26 23:09 33.35370 -100.27452 42609 ft 415 kts 284°
2026-04-26 23:09 33.36848 -100.34125 42609 ft 415 kts 284°
2026-04-26 23:10 33.38322 -100.40800 42605 ft 415 kts 284°
2026-04-26 23:10 33.39785 -100.47444 42606 ft 415 kts 284°
2026-04-26 23:11 33.41251 -100.54123 42603 ft 415 kts 283°
2026-04-26 23:11 33.42715 -100.60807 42609 ft 414 kts 283°
2026-04-26 23:12 33.44172 -100.67482 42601 ft 414 kts 283°
2026-04-26 23:12 33.45625 -100.74154 42604 ft 414 kts 283°
2026-04-26 23:13 33.47073 -100.80823 42599 ft 414 kts 283°
2026-04-26 23:13 33.48509 -100.87456 42601 ft 413 kts 283°
2026-04-26 23:14 33.49951 -100.94132 42603 ft 413 kts 283°
2026-04-26 23:14 33.51387 -101.00801 42607 ft 413 kts 283°
2026-04-26 23:15 33.52800 -101.07454 42605 ft 414 kts 282°
2026-04-26 23:15 33.54129 -101.14176 42602 ft 414 kts 282°
2026-04-26 23:16 33.55503 -101.20902 42604 ft 414 kts 282°
2026-04-26 23:16 33.56838 -101.27568 42607 ft 413 kts 282°
2026-04-26 23:17 33.58186 -101.34270 42608 ft 413 kts 282°
2026-04-26 23:17 33.59528 -101.40980 42610 ft 413 kts 282°
2026-04-26 23:18 33.60865 -101.47680 42635 ft 413 kts 282°
2026-04-26 23:18 33.62196 -101.54374 42655 ft 412 kts 282°
2026-04-26 23:19 33.63515 -101.61026 42683 ft 412 kts 282°
2026-04-26 23:19 33.64825 -101.67652 42709 ft 411 kts 282°
2026-04-26 23:20 33.66136 -101.74300 42716 ft 411 kts 282°
2026-04-26 23:20 33.67451 -101.80989 42719 ft 411 kts 281°
2026-04-26 23:21 33.68760 -101.87673 42717 ft 411 kts 281°
2026-04-26 23:21 33.70063 -101.94346 42713 ft 410 kts 281°
2026-04-26 23:22 33.71357 -102.00992 42684 ft 410 kts 281°
2026-04-26 23:22 33.72656 -102.07678 42657 ft 410 kts 281°
2026-04-26 23:23 33.73949 -102.14362 42644 ft 410 kts 281°
2026-04-26 23:23 33.75229 -102.20995 42655 ft 410 kts 281°
2026-04-26 23:24 33.76518 -102.27670 42653 ft 409 kts 281°
2026-04-26 23:24 33.77783 -102.34335 42661 ft 409 kts 281°
2026-04-26 23:25 33.79059 -102.40958 42661 ft 409 kts 281°
2026-04-26 23:25 33.80326 -102.47629 42643 ft 409 kts 281°
2026-04-26 23:26 33.81594 -102.54292 42616 ft 408 kts 281°
2026-04-26 23:26 33.82854 -102.60951 42590 ft 408 kts 281°
2026-04-26 23:27 33.84112 -102.67611 42580 ft 408 kts 281°
2026-04-26 23:27 33.85358 -102.74234 42588 ft 408 kts 280°
2026-04-26 23:28 33.86608 -102.80895 42587 ft 407 kts 280°
2026-04-26 23:28 33.87852 -102.87548 42581 ft 407 kts 280°
2026-04-26 23:29 33.89091 -102.94196 42581 ft 407 kts 280°
2026-04-26 23:29 33.90320 -103.00808 42587 ft 407 kts 280°
2026-04-26 23:30 33.91553 -103.07462 42579 ft 407 kts 280°
2026-04-26 23:30 33.92783 -103.14125 42586 ft 407 kts 280°
2026-04-26 23:31 33.94011 -103.20795 42585 ft 408 kts 280°
2026-04-26 23:31 33.95234 -103.27464 42578 ft 408 kts 279°
2026-04-26 23:32 33.96455 -103.34139 42582 ft 408 kts 279°
2026-04-26 23:32 33.97672 -103.40819 42575 ft 408 kts 279°
2026-04-26 23:33 33.98887 -103.47504 42581 ft 408 kts 279°
2026-04-26 23:33 33.99894 -103.53061 42581 ft 408 kts 279°
2026-04-26 23:34 34.01298 -103.60839 42573 ft 408 kts 279°
2026-04-26 23:34 34.02295 -103.66379 42568 ft 408 kts 279°
2026-04-26 23:35 34.03495 -103.73068 42565 ft 408 kts 279°
2026-04-26 23:35 34.04690 -103.79749 42555 ft 408 kts 279°
2026-04-26 23:36 34.05882 -103.86437 42542 ft 407 kts 279°
2026-04-26 23:36 34.07070 -103.93123 42535 ft 408 kts 279°
2026-04-26 23:37 34.08255 -103.99815 42526 ft 408 kts 279°
2026-04-26 23:37 34.09427 -104.06460 42530 ft 407 kts 279°
2026-04-26 23:38 34.10603 -104.13146 42535 ft 407 kts 278°
2026-04-26 23:38 34.11777 -104.19843 42535 ft 408 kts 278°
2026-04-26 23:39 34.12949 -104.26558 42541 ft 409 kts 278°
2026-04-26 23:39 34.14111 -104.33233 42535 ft 411 kts 278°
2026-04-26 23:40 34.15283 -104.39987 42546 ft 411 kts 278°
2026-04-26 23:40 34.16453 -104.46751 42546 ft 411 kts 278°
2026-04-26 23:41 34.17618 -104.53511 42549 ft 412 kts 278°
2026-04-26 23:41 34.18782 -104.60289 42547 ft 412 kts 278°
2026-04-26 23:42 34.19946 -104.67092 42554 ft 413 kts 278°
2026-04-26 23:42 34.21678 -104.77257 42551 ft 414 kts 278°
2026-04-26 23:43 34.22836 -104.84082 42564 ft 415 kts 278°
2026-04-26 23:43 34.23996 -104.90943 42568 ft 416 kts 278°
2026-04-26 23:44 34.25154 -104.97820 42571 ft 418 kts 277°
2026-04-26 23:44 34.26310 -105.04715 42592 ft 419 kts 277°
2026-04-26 23:45 34.27459 -105.11585 42608 ft 420 kts 277°
2026-04-26 23:45 34.28614 -105.18517 42617 ft 421 kts 277°
2026-04-26 23:46 34.29761 -105.25426 42618 ft 421 kts 277°
2026-04-26 23:46 34.30912 -105.32381 42639 ft 422 kts 277°
2026-04-26 23:47 34.32058 -105.39335 42642 ft 421 kts 277°
2026-04-26 23:47 34.33196 -105.46271 42646 ft 420 kts 276°
2026-04-26 23:48 34.34328 -105.53191 42652 ft 419 kts 276°
2026-04-26 23:48 34.35456 -105.60112 42662 ft 418 kts 276°
2026-04-26 23:49 34.36569 -105.67011 42656 ft 416 kts 276°
2026-04-26 23:49 34.37160 -105.73917 42660 ft 413 kts 271°
2026-04-26 23:50 34.37714 -105.80864 42664 ft 413 kts 271°
2026-04-26 23:50 34.38227 -105.87753 42663 ft 413 kts 271°
2026-04-26 23:51 34.38754 -105.94680 42660 ft 413 kts 271°
2026-04-26 23:51 34.39271 -106.01617 42657 ft 413 kts 271°
2026-04-26 23:52 34.39786 -106.08545 42658 ft 413 kts 271°
2026-04-26 23:52 34.40297 -106.15482 42652 ft 413 kts 271°
2026-04-26 23:53 34.40804 -106.22411 42650 ft 412 kts 271°
2026-04-26 23:53 34.41306 -106.29335 42647 ft 412 kts 271°
2026-04-26 23:54 34.41801 -106.36210 42642 ft 411 kts 271°
2026-04-26 23:54 34.42294 -106.43116 42637 ft 411 kts 271°
2026-04-26 23:55 34.42782 -106.50013 42631 ft 410 kts 270°
2026-04-26 23:55 34.43266 -106.56905 42618 ft 411 kts 270°
2026-04-26 23:56 34.43748 -106.63816 42612 ft 411 kts 270°
2026-04-26 23:56 34.44226 -106.70734 42606 ft 413 kts 270°
2026-04-26 23:57 34.44699 -106.77632 42599 ft 414 kts 270°
2026-04-26 23:57 34.45172 -106.84593 42596 ft 415 kts 270°
2026-04-26 23:58 34.45643 -106.91580 42603 ft 416 kts 270°
2026-04-26 23:58 34.46111 -106.98584 42604 ft 417 kts 270°
2026-04-26 23:59 34.46572 -107.05550 42611 ft 417 kts 270°
2026-04-26 23:59 34.47032 -107.12586 42619 ft 421 kts 270°
2026-04-27 00:00 34.47494 -107.19651 42623 ft 421 kts 270°
2026-04-27 00:00 34.47951 -107.26738 42632 ft 423 kts 270°
2026-04-27 00:01 34.48406 -107.33863 42647 ft 423 kts 270°
2026-04-27 00:01 34.48858 -107.40993 42651 ft 424 kts 270°
2026-04-27 00:02 34.49303 -107.48080 42660 ft 424 kts 270°
2026-04-27 00:02 34.49747 -107.55220 42666 ft 425 kts 270°
2026-04-27 00:03 34.50186 -107.62372 42663 ft 425 kts 270°
2026-04-27 00:03 34.50623 -107.69518 42677 ft 425 kts 270°
2026-04-27 00:04 34.51053 -107.76656 42671 ft 423 kts 270°
2026-04-27 00:04 34.51481 -107.83800 42683 ft 425 kts 270°
2026-04-27 00:05 34.51903 -107.90915 42685 ft 425 kts 270°
2026-04-27 00:05 34.52321 -107.98071 42684 ft 425 kts 270°
2026-04-27 00:06 34.52738 -108.05231 42686 ft 425 kts 270°
2026-04-27 00:06 34.53147 -108.12377 42698 ft 425 kts 270°
2026-04-27 00:07 34.53554 -108.19515 42695 ft 424 kts 270°
2026-04-27 00:07 34.53952 -108.26603 42695 ft 424 kts 270°
2026-04-27 00:08 34.54349 -108.33725 42701 ft 423 kts 270°
2026-04-27 00:08 34.54741 -108.40841 42701 ft 422 kts 270°
2026-04-27 00:09 34.55128 -108.47940 42709 ft 422 kts 270°
2026-04-27 00:09 34.55511 -108.55032 42714 ft 422 kts 270°
2026-04-27 00:10 34.55889 -108.62129 42714 ft 421 kts 270°
2026-04-27 00:10 34.56264 -108.69230 42715 ft 422 kts 270°
2026-04-27 00:11 34.56634 -108.76321 42718 ft 421 kts 270°
2026-04-27 00:11 34.56997 -108.83356 42720 ft 421 kts 270°
2026-04-27 00:12 34.57360 -108.90459 42718 ft 421 kts 270°
2026-04-27 00:12 34.57718 -108.97568 42740 ft 421 kts 270°
2026-04-27 00:13 34.58071 -109.04627 42778 ft 421 kts 270°
2026-04-27 00:13 34.58421 -109.11745 42819 ft 422 kts 270°
2026-04-27 00:14 34.58768 -109.18858 42859 ft 422 kts 270°
2026-04-27 00:14 34.59110 -109.25997 42890 ft 424 kts 270°
2026-04-27 00:15 34.59451 -109.33136 42914 ft 424 kts 270°
2026-04-27 00:15 34.59783 -109.40228 42913 ft 423 kts 270°
2026-04-27 00:16 34.60114 -109.47366 42899 ft 423 kts 270°
2026-04-27 00:16 34.60441 -109.54508 42868 ft 424 kts 270°
2026-04-27 00:17 34.60764 -109.61662 42839 ft 423 kts 270°
2026-04-27 00:17 34.61083 -109.68804 42814 ft 423 kts 269°
2026-04-27 00:18 34.61395 -109.75896 42777 ft 423 kts 269°
2026-04-27 00:18 34.61704 -109.83028 42806 ft 423 kts 269°
2026-04-27 00:19 34.62010 -109.90153 42836 ft 422 kts 269°
2026-04-27 00:19 34.62311 -109.97278 42865 ft 422 kts 269°
2026-04-27 00:20 34.62605 -110.04330 42874 ft 421 kts 269°
2026-04-27 00:20 34.62896 -110.11425 42879 ft 420 kts 269°
2026-04-27 00:21 34.63183 -110.18512 42878 ft 420 kts 269°
2026-04-27 00:21 34.63466 -110.25595 42864 ft 419 kts 269°
2026-04-27 00:22 34.63698 -110.31478 42849 ft 419 kts 269°
2026-04-27 00:22 34.63972 -110.38540 42824 ft 419 kts 269°
2026-04-27 00:23 34.64244 -110.45613 42801 ft 419 kts 269°
2026-04-27 00:23 34.64508 -110.52635 42792 ft 419 kts 269°
2026-04-27 00:24 34.64771 -110.59702 42797 ft 418 kts 269°
2026-04-27 00:24 34.65029 -110.66765 42802 ft 418 kts 269°
2026-04-27 00:25 34.65283 -110.73826 42802 ft 418 kts 269°
2026-04-27 00:25 34.65533 -110.80894 42810 ft 419 kts 269°
2026-04-27 00:26 34.65779 -110.87942 42813 ft 420 kts 269°
2026-04-27 00:26 34.66021 -110.95044 42820 ft 421 kts 269°
2026-04-27 00:27 34.66261 -111.02158 42825 ft 422 kts 269°
2026-04-27 00:27 34.66497 -111.09275 42838 ft 422 kts 269°
2026-04-27 00:28 34.66727 -111.16375 42860 ft 422 kts 269°
2026-04-27 00:28 34.66955 -111.23517 42866 ft 423 kts 269°
2026-04-27 00:29 34.67179 -111.30657 42872 ft 423 kts 269°
2026-04-27 00:29 34.67399 -111.37817 42879 ft 423 kts 269°
2026-04-27 00:30 34.67614 -111.44928 42899 ft 424 kts 269°
2026-04-27 00:30 34.67825 -111.52086 42915 ft 423 kts 269°
2026-04-27 00:31 34.68032 -111.59241 42936 ft 423 kts 269°
2026-04-27 00:31 34.68234 -111.66379 42944 ft 423 kts 269°
2026-04-27 00:32 34.68432 -111.73491 42949 ft 422 kts 269°
2026-04-27 00:32 34.68627 -111.80625 42957 ft 422 kts 268°
2026-04-27 00:33 34.68816 -111.87712 42949 ft 423 kts 268°
2026-04-27 00:33 34.69002 -111.94858 42934 ft 423 kts 268°
2026-04-27 00:34 34.69184 -112.02011 42921 ft 423 kts 268°
2026-04-27 00:34 34.69362 -112.09161 42906 ft 423 kts 268°
2026-04-27 00:35 34.69536 -112.16315 42929 ft 423 kts 268°
2026-04-27 00:35 34.69706 -112.23447 42952 ft 422 kts 268°
2026-04-27 00:36 34.69870 -112.30539 42978 ft 423 kts 268°
2026-04-27 00:36 34.70032 -112.37703 42985 ft 424 kts 268°
2026-04-27 00:37 34.70189 -112.44871 42988 ft 424 kts 268°
2026-04-27 00:37 34.70888 -112.52019 42975 ft 429 kts 276°
2026-04-27 00:38 34.72010 -112.59113 42954 ft 430 kts 276°
2026-04-27 00:38 34.73130 -112.66277 42927 ft 432 kts 276°
2026-04-27 00:39 34.74263 -112.73477 42900 ft 434 kts 276°
2026-04-27 00:39 34.75383 -112.80692 42874 ft 434 kts 276°
2026-04-27 00:40 34.76507 -112.87908 42862 ft 435 kts 276°
2026-04-27 00:40 34.77614 -112.95079 42862 ft 435 kts 276°
2026-04-27 00:41 34.78730 -113.02319 42857 ft 435 kts 276°
2026-04-27 00:41 34.79841 -113.09562 42857 ft 436 kts 276°
2026-04-27 00:42 34.80950 -113.16821 42854 ft 437 kts 276°
2026-04-27 00:42 34.82056 -113.24094 42847 ft 437 kts 276°
2026-04-27 00:43 34.83160 -113.31379 42850 ft 437 kts 276°
2026-04-27 00:43 34.84251 -113.38619 42846 ft 438 kts 276°
2026-04-27 00:44 34.85349 -113.45925 42840 ft 438 kts 276°
2026-04-27 00:44 34.86443 -113.53245 42833 ft 439 kts 276°
2026-04-27 00:45 34.87534 -113.60566 42836 ft 439 kts 276°
2026-04-27 00:45 34.88614 -113.67846 42823 ft 439 kts 276°
2026-04-27 00:46 34.89628 -113.74717 42791 ft 438 kts 276°
2026-04-27 00:46 34.90706 -113.82054 42813 ft 441 kts 276°
2026-04-27 00:47 34.91784 -113.89406 42821 ft 441 kts 275°
2026-04-27 00:47 34.92857 -113.96769 42837 ft 442 kts 276°
2026-04-27 00:48 34.93923 -114.04117 42830 ft 442 kts 276°
2026-04-27 00:48 34.94992 -114.11514 42824 ft 442 kts 276°
2026-04-27 00:49 34.96049 -114.18861 42812 ft 443 kts 276°
2026-04-27 00:49 34.97110 -114.26267 42815 ft 443 kts 276°
2026-04-27 00:50 34.98696 -114.37407 42819 ft 444 kts 276°
2026-04-27 00:51 34.99748 -114.44834 42820 ft 445 kts 276°
2026-04-27 00:51 35.00796 -114.52269 42829 ft 445 kts 276°
2026-04-27 00:52 35.01834 -114.59665 42826 ft 446 kts 276°
2026-04-27 00:52 35.02877 -114.67138 42830 ft 446 kts 276°
2026-04-27 00:53 35.03918 -114.74635 42823 ft 448 kts 275°
2026-04-27 00:53 35.04947 -114.82067 42831 ft 447 kts 276°
2026-04-27 00:54 35.05978 -114.89553 42827 ft 448 kts 276°
2026-04-27 00:54 35.07006 -114.97047 42831 ft 447 kts 276°
2026-04-27 00:55 35.08029 -115.04549 42831 ft 448 kts 276°
2026-04-27 00:55 35.09041 -115.12005 42837 ft 448 kts 276°
2026-04-27 00:56 35.10056 -115.19513 42843 ft 448 kts 276°
2026-04-27 00:56 35.11065 -115.27019 42846 ft 448 kts 276°
2026-04-27 00:57 35.12071 -115.34538 42857 ft 448 kts 276°
2026-04-27 00:57 35.13072 -115.42056 42849 ft 448 kts 276°
2026-04-27 00:58 35.14064 -115.49535 42855 ft 448 kts 275°
2026-04-27 00:58 35.15057 -115.57065 42849 ft 449 kts 275°
2026-04-27 00:59 35.16044 -115.64595 42852 ft 449 kts 275°
2026-04-27 00:59 35.17028 -115.72130 42852 ft 449 kts 275°
2026-04-27 01:00 35.18009 -115.79679 42848 ft 449 kts 275°
2026-04-27 01:00 35.18985 -115.87233 42853 ft 450 kts 275°
2026-04-27 01:01 35.19954 -115.94760 42848 ft 451 kts 275°
2026-04-27 01:01 35.20924 -116.02339 42845 ft 451 kts 275°
2026-04-27 01:02 35.21890 -116.09933 42847 ft 452 kts 275°
2026-04-27 01:02 35.22853 -116.17541 42841 ft 453 kts 275°
2026-04-27 01:03 35.23808 -116.25115 42854 ft 454 kts 275°
2026-04-27 01:03 35.24766 -116.32756 42859 ft 454 kts 275°
2026-04-27 01:04 35.25720 -116.40409 42871 ft 455 kts 275°
2026-04-27 01:04 35.26668 -116.48052 42876 ft 454 kts 275°
2026-04-27 01:05 35.27613 -116.55709 42887 ft 455 kts 275°
2026-04-27 01:05 35.28549 -116.63333 42884 ft 455 kts 275°
2026-04-27 01:06 35.29484 -116.70998 42881 ft 455 kts 275°
2026-04-27 01:06 35.30413 -116.78649 42882 ft 455 kts 275°
2026-04-27 01:07 35.31334 -116.86278 42876 ft 454 kts 275°
2026-04-27 01:07 35.32254 -116.93941 42865 ft 455 kts 275°
2026-04-27 01:08 35.33171 -117.01614 42861 ft 454 kts 275°
2026-04-27 01:08 35.34079 -117.09260 42856 ft 454 kts 275°
2026-04-27 01:09 35.34984 -117.16924 42856 ft 455 kts 275°
2026-04-27 01:09 35.35884 -117.24593 42856 ft 456 kts 275°
2026-04-27 01:10 35.36778 -117.32243 42855 ft 456 kts 275°
2026-04-27 01:10 35.37675 -117.39965 42857 ft 457 kts 275°
2026-04-27 01:11 35.38565 -117.47670 42862 ft 456 kts 275°
2026-04-27 01:11 35.39300 -117.54075 42854 ft 456 kts 275°
2026-04-27 01:12 35.40324 -117.63033 42859 ft 457 kts 275°
2026-04-27 01:12 35.41200 -117.70756 42861 ft 457 kts 275°
2026-04-27 01:13 35.41924 -117.77173 42865 ft 457 kts 275°
2026-04-27 01:13 35.42793 -117.84907 42866 ft 458 kts 275°
2026-04-27 01:14 35.43656 -117.92638 42887 ft 458 kts 275°
2026-04-27 01:14 35.44516 -118.00394 42906 ft 459 kts 275°
2026-04-27 01:15 35.45373 -118.08155 42921 ft 459 kts 275°
2026-04-27 01:15 35.46224 -118.15920 42932 ft 460 kts 275°
2026-04-27 01:16 35.47074 -118.23731 42930 ft 461 kts 275°
2026-04-27 01:16 35.47921 -118.31542 42948 ft 461 kts 275°
2026-04-27 01:17 35.48761 -118.39349 42958 ft 461 kts 275°
2026-04-27 01:17 35.49592 -118.47117 42972 ft 462 kts 275°
2026-04-27 01:18 35.50424 -118.54935 42993 ft 462 kts 275°
2026-04-27 01:18 35.51250 -118.62761 42980 ft 463 kts 275°
2026-04-27 01:19 35.52073 -118.70596 42988 ft 462 kts 275°
2026-04-27 01:19 35.52890 -118.78438 42992 ft 463 kts 275°
2026-04-27 01:20 35.53705 -118.86296 42995 ft 463 kts 275°
2026-04-27 01:20 35.54514 -118.94155 42999 ft 464 kts 275°
2026-04-27 01:21 35.55319 -119.02018 43000 ft 464 kts 274°
2026-04-27 01:21 35.56118 -119.09889 42994 ft 465 kts 274°
2026-04-27 01:22 35.56909 -119.17724 42994 ft 465 kts 274°
2026-04-27 01:22 35.57701 -119.25615 42998 ft 465 kts 274°
2026-04-27 01:23 35.58483 -119.33461 42778 ft 451 kts 274°
2026-04-27 01:23 35.58857 -119.37223 42237 ft 437 kts 274°
2026-04-27 01:23 35.59217 -119.40876 41694 ft 425 kts 274°
2026-04-27 01:23 35.59566 -119.44435 41167 ft 414 kts 274°
2026-04-27 01:24 35.59908 -119.47912 40661 ft 408 kts 274°
2026-04-27 01:24 35.60245 -119.51364 40182 ft 407 kts 274°
2026-04-27 01:24 35.60583 -119.54836 39729 ft 409 kts 274°
2026-04-27 01:24 35.60922 -119.58318 39295 ft 410 kts 274°
2026-04-27 01:25 35.61260 -119.61798 38868 ft 411 kts 274°
2026-04-27 01:25 35.61598 -119.65292 38393 ft 411 kts 274°
2026-04-27 01:25 35.61934 -119.68784 37871 ft 411 kts 274°
2026-04-27 01:25 35.62267 -119.72237 36755 ft 407 kts 275°
2026-04-27 01:26 35.62597 -119.75690 35409 ft 420 kts 275°
2026-04-27 01:26 35.62937 -119.79261 34803 ft 420 kts 275°
2026-04-27 01:26 35.63279 -119.82831 34353 ft 421 kts 275°
2026-04-27 01:26 35.63619 -119.86409 33907 ft 422 kts 275°
2026-04-27 01:27 35.63958 -119.89996 33388 ft 424 kts 275°
2026-04-27 01:27 35.64299 -119.93607 32873 ft 425 kts 275°
2026-04-27 01:27 35.64924 -119.97171 32280 ft 430 kts 287°
2026-04-27 01:27 35.66218 -120.00503 31731 ft 435 kts 299°
2026-04-27 01:28 35.67948 -120.03581 31248 ft 437 kts 302°
2026-04-27 01:28 35.69714 -120.06636 30791 ft 439 kts 302°
2026-04-27 01:28 35.71473 -120.09719 30141 ft 438 kts 302°
2026-04-27 01:28 35.73199 -120.12771 29315 ft 431 kts 302°
2026-04-27 01:29 35.74904 -120.15775 28489 ft 424 kts 302°
2026-04-27 01:29 35.76562 -120.18681 27997 ft 401 kts 302°
2026-04-27 01:29 35.78169 -120.21508 28020 ft 410 kts 302°
2026-04-27 01:30 35.81453 -120.27317 28029 ft 420 kts 302°
2026-04-27 01:30 35.84812 -120.33238 28029 ft 422 kts 302°
2026-04-27 01:31 35.88167 -120.39185 28028 ft 423 kts 302°
2026-04-27 01:31 35.91529 -120.45140 27728 ft 425 kts 302°
2026-04-27 01:31 35.93214 -120.48132 26448 ft 420 kts 302°
2026-04-27 01:32 35.94865 -120.51065 25198 ft 411 kts 302°
2026-04-27 01:32 35.96474 -120.53925 24025 ft 401 kts 302°
2026-04-27 01:32 35.98038 -120.56706 22519 ft 385 kts 302°
2026-04-27 01:32 35.99578 -120.59455 21102 ft 386 kts 302°
2026-04-27 01:33 36.01084 -120.62140 20276 ft 374 kts 302°
2026-04-27 01:33 36.02557 -120.64765 20062 ft 374 kts 302°
2026-04-27 01:33 36.04004 -120.67344 20062 ft 349 kts 302°
2026-04-27 01:33 36.05310 -120.69671 20049 ft 322 kts 302°
2026-04-27 01:34 36.06581 -120.71952 20042 ft 321 kts 302°
2026-04-27 01:34 36.07849 -120.74233 20038 ft 320 kts 301°
2026-04-27 01:34 36.09114 -120.76508 20048 ft 321 kts 302°
2026-04-27 01:34 36.10384 -120.78781 20043 ft 322 kts 302°
2026-04-27 01:35 36.11721 -120.81181 19787 ft 357 kts 302°
2026-04-27 01:35 36.13163 -120.83770 19539 ft 367 kts 302°
2026-04-27 01:35 36.14626 -120.86385 19293 ft 371 kts 302°
2026-04-27 01:35 36.16090 -120.89007 19046 ft 370 kts 302°
2026-04-27 01:36 36.17550 -120.91636 18786 ft 370 kts 302°
2026-04-27 01:36 36.18990 -120.94232 18544 ft 369 kts 302°
2026-04-27 01:36 36.20438 -120.96834 18296 ft 357 kts 302°
2026-04-27 01:36 36.21862 -120.99398 17985 ft 358 kts 302°
2026-04-27 01:37 36.23257 -121.01912 16611 ft 355 kts 302°
2026-04-27 01:37 36.24654 -121.04439 15534 ft 356 kts 302°
2026-04-27 01:37 36.26043 -121.06945 15415 ft 355 kts 302°
2026-04-27 01:37 36.27433 -121.09455 14978 ft 352 kts 302°
2026-04-27 01:38 36.28817 -121.11957 14516 ft 351 kts 302°
2026-04-27 01:38 36.30197 -121.14454 14022 ft 350 kts 302°
2026-04-27 01:38 36.31565 -121.16933 13524 ft 347 kts 302°
2026-04-27 01:38 36.32927 -121.19400 13061 ft 346 kts 303°
2026-04-27 01:39 36.34287 -121.21866 12604 ft 344 kts 303°
2026-04-27 01:39 36.35634 -121.24311 12155 ft 343 kts 303°
2026-04-27 01:39 36.36980 -121.26756 11703 ft 341 kts 303°
2026-04-27 01:39 36.38315 -121.29181 11251 ft 339 kts 303°
2026-04-27 01:40 36.39603 -121.31523 10817 ft 318 kts 303°
2026-04-27 01:40 36.40811 -121.33718 10408 ft 299 kts 303°
2026-04-27 01:40 36.41953 -121.35790 10024 ft 284 kts 303°
2026-04-27 01:40 36.43081 -121.37404 9637 ft 280 kts 312°
2026-04-27 01:41 36.44439 -121.39115 9246 ft 277 kts 313°
2026-04-27 01:41 36.45764 -121.40808 8838 ft 276 kts 312°
2026-04-27 01:41 36.47084 -121.42527 8444 ft 275 kts 312°
2026-04-27 01:41 36.48408 -121.44251 8038 ft 275 kts 312°
2026-04-27 01:42 36.49739 -121.45972 7636 ft 277 kts 312°
2026-04-27 01:42 36.51074 -121.47698 7233 ft 277 kts 312°
2026-04-27 01:42 36.52414 -121.49435 6834 ft 277 kts 312°
2026-04-27 01:42 36.53751 -121.51170 6417 ft 277 kts 312°
2026-04-27 01:43 36.55060 -121.52868 6001 ft 273 kts 312°
2026-04-27 01:43 36.56349 -121.54542 5603 ft 262 kts 311°
2026-04-27 01:43 36.57310 -121.56349 5156 ft 248 kts 289°
2026-04-27 01:43 36.57538 -121.58395 4821 ft 234 kts 266°
2026-04-27 01:44 36.57138 -121.60317 4519 ft 226 kts 250°
2026-04-27 01:44 36.56598 -121.62138 4210 ft 222 kts 251°
2026-04-27 01:44 36.56426 -121.63969 4198 ft 216 kts 274°
2026-04-27 01:44 36.56608 -121.65831 4180 ft 217 kts 276°
2026-04-27 01:45 36.56782 -121.67702 3913 ft 219 kts 276°
2026-04-27 01:45 36.56963 -121.69631 3242 ft 228 kts 276°
2026-04-27 01:45 36.57148 -121.71623 2610 ft 233 kts 276°
2026-04-27 01:45 36.57288 -121.73552 2487 ft 213 kts 274°
2026-04-27 01:46 36.57384 -121.75270 2052 ft 184 kts 273°
2026-04-27 01:46 36.57479 -121.76644 1663 ft 143 kts 275°
2026-04-27 01:46 36.57556 -121.77775 1375 ft 121 kts 274°
2026-04-27 01:46 36.57565 -121.78799 1086 ft 118 kts 269°
2026-04-27 01:47 36.57557 -121.79783 952 ft 114 kts 268°
2026-04-27 01:47 36.57554 -121.80781 742 ft 115 kts 268°
2026-04-27 01:47 36.57794 -121.81746 565 ft 118 kts 286°
2026-04-27 01:47 36.58116 -121.82695 397 ft 119 kts 288°
2026-04-27 01:48 36.58435 -121.83640 254 ft 114 kts 288°
2026-04-27 01:48 36.58690 -121.84399 216 ft 70 kts 292°
2026-04-27 01:48 36.58812 -121.84762 202 ft 30 kts 293°
2026-04-27 01:48 36.58861 -121.84906 195 ft 16 kts 293°
2026-04-27 01:49 36.58894 -121.85015 194 ft 8 kts 264°
2026-04-27 01:49 36.58853 -121.85061 189 ft 4 kts 200°
2026-04-27 01:49 36.58839 -121.85088 188 ft 5 kts 266°
2026-04-27 01:49 36.58856 -121.85138 196 ft 10 kts 294°
2026-04-27 01:50 36.58892 -121.85245 180 ft 16 kts 292°
2026-04-27 01:50 36.58937 -121.85385 174 ft 19 kts 285°
2026-04-27 01:50 36.58963 -121.85496 170 ft 9 kts 281°
2026-04-27 01:50 36.58948 -121.85572 168 ft 10 kts 256°
2026-04-27 01:51 36.58929 -121.85664 165 ft 12 kts 256°
2026-04-27 01:51 36.58908 -121.85768 165 ft 12 kts 256°
2026-04-27 01:51 36.58898 -121.85841 165 ft 4 kts 297°
2026-04-27 01:51 36.58926 -121.85859 165 ft 4 kts 347°
2026-04-27 01:52 36.58939 -121.85852 165 ft 2 kts 73°
2026-04-27 01:52 36.58943 -121.85829 165 ft 3 kts 76°
2026-04-27 01:52 36.58945 -121.85821 165 ft 0 kts 76°